Home   Weather   Zwettl   Past weeks

Flag for Austria Past Weather in Zwettl, Lower Austria, Austria — Yesterday and Last 2 Weeks

Now
20 °F

Clear.


Feels Like: 20 °F
Forecast: 2 / 19 °F
Wind: No wind

Location: Retz

Current Time: Jan 19, 2017 at 8:21:44 pm

Latest Report: Jan 19, 2017 at 7:00 pm


Visibility: 3 mi

Pressure: 30.69 "Hg (28.69 "Hg at 524m altitude)

Humidity: 75%

Dew Point: 13 °F

Location of ZwettlLocation

Past Weather in Zwettl — Graph

°F

Zwettl Temperature Yesterday

Maximum temperature yesterday: 30 °F (at 2:00 pm)
Minimum temperature yesterday: 18 °F (at 11:00 pm)
Average temperature yesterday: 24 °F

High & Low Weather Summary for the Past Weeks

 TemperatureHumidityPressure
High42 °F (Jan 12, 2:00 pm)98% (Jan 12, 11:00 pm)30.73 "Hg (Jan 12, 11:00 pm)
Low9 °F (Jan 11, 2:00 am)53% (Jan 7, 1:00 pm)29.44 "Hg (Jan 13, 6:00 am)
Average24 °F77%30.21 "Hg
* Reported Jan 4 6:00 pm — Jan 19 6:00 pm, Zwettl, Weather by CustomWeather, © 2017

Note: Actual official high and low records may vary slightly from our data, if they occured in-between our weather recording intervals... More about our weather records

Advertising

Zwettl Weather History for the Previous 24 Hours

Scroll right to see more
 ConditionsComfort  
Time TempWeatherWind HumidityBarometerVisibility
6:00 pm
Thu, Jan 19
20 °FCold.1 mph74%30.68 "HgN/A
5:00 pm22 °FCold.2 mph72%30.68 "HgN/A
4:00 pm24 °FCold.2 mph67%30.67 "HgN/A
3:00 pm26 °FChilly.2 mph63%30.67 "HgN/A
2:00 pm25 °FCold.1 mph64%30.67 "HgN/A
1:00 pm25 °FSunny.2 mph70%30.68 "Hg4 mi
12:00 pm23 °FCold.1 mph73%30.70 "HgN/A
11:00 am20 °FCold.1 mph77%30.72 "HgN/A
10:00 am18 °FCold.1 mph81%30.73 "HgN/A
9:00 am14 °FCold.2 mph84%30.73 "HgN/A
8:00 am14 °FCold.3 mph85%30.72 "HgN/A
7:00 am13 °FClear.5 mph85%30.71 "Hg3 mi
6:00 am13 °FCold.3 mph85%30.71 "HgN/A
5:00 am15 °FCold.3 mph85%30.71 "HgN/A
4:00 am15 °FCold.3 mph85%30.71 "HgN/A
3:00 am16 °FCold.3 mph85%30.70 "HgN/A
2:00 am16 °FCold.2 mph84%30.70 "HgN/A
1:00 am17 °FCold.3 mph83%30.68 "HgN/A
12:00 am18 °FCold.3 mph83%30.70 "HgN/A
11:00 pm
Wed, Jan 18
18 °FCold.3 mph82%30.70 "HgN/A
10:00 pm19 °FCold.1 mph84%30.70 "HgN/A
9:00 pm18 °FCold.1 mph85%30.71 "HgN/A
8:00 pm20 °FCold.1 mph85%30.70 "HgN/A
Weather by CustomWeather, © 2017

See weather overviewHow to use our weather pages